Home > Weather > Iqaluit > Past weeks

Flag for Canada Weather for the Past 2 Weeks in Iqaluit, Nunavut, Canada

Now
18 °F

Light snow. Passing clouds.


Feels Like: 3 °F
Forecast: 10 / 31 °F
Wind: 16 mph from Northwest

Location: Iqaluit

Current Time: May 1, 2016 at 4:06:16 AM

Latest Report: May 1, 2016 at 3:00 AM


Visibility: 15 mi

Pressure: 30.27 "Hg

Humidity: 73%

Dew Point: 10 °F

Location of IqaluitLocation

Historic Weather in Iqaluit — Graph

°F

Iqaluit Temperature Yesterday

Maximum temperature yesterday: 27 °F (at 12:00 AM)
Minimum temperature yesterday: 18 °F (at 9:00 PM)
Average temperature yesterday: 21 °F

High & Low Weather Summary for the Past Weeks

 TemperatureHumidityPressure
High45 °F (Apr 28, 2:00 PM)100% (Apr 20, 1:00 PM)30.34 "Hg (Apr 20, 1:00 PM)
Low-6 °F (Apr 19, 12:00 AM)52% (Apr 22, 3:00 PM)29.00 "Hg (Apr 21, 3:00 AM)
Average19 °F76%30.00 "Hg
* Reported Apr 16 2:00 AM — May 1 2:00 AM, Iqaluit, Weather by CustomWeather, © 2016

Note: Actual official high and low records may vary slightly from our data, if they occured in-between our weather recording intervals... More about our weather records

Advertising

Iqaluit Weather History for the Previous 24 Hours

Scroll right to see more
 ConditionsComfort  
Time TempWeatherWind HumidityBarometerVisibility
2:00 AM
Sun, May 1
18 °FLight snow. Passing clouds.18 mph79%30.27 "Hg15 mi
1:00 AM16 °FPassing clouds.17 mph79%30.27 "Hg15 mi
12:00 AM16 °FPassing clouds.17 mph79%30.25 "Hg15 mi
11:00 PM
Sat, Apr 30
18 °FLight snow. Partly cloudy.20 mph79%30.25 "Hg15 mi
10:00 PM18 °FPartly cloudy.21 mph79%30.26 "Hg20 mi
9:00 PM18 °FPartly sunny.15 mph79%30.27 "Hg20 mi
8:00 PM19 °FBroken clouds.17 mph73%30.27 "Hg20 mi
7:00 PM19 °FPassing clouds.22 mph73%30.26 "Hg30 mi
6:00 PM21 °FScattered clouds.26 mph68%30.26 "Hg30 mi
5:00 PM21 °FPassing clouds.26 mph68%30.25 "Hg30 mi
4:00 PM21 °FPassing clouds.28 mph74%30.23 "Hg30 mi
3:00 PM23 °FPassing clouds.24 mph74%30.23 "Hg30 mi
2:00 PM21 °FPassing clouds.30 mph74%30.22 "Hg30 mi
1:00 PM21 °FScattered clouds.22 mph74%30.23 "Hg30 mi
12:00 PM21 °FPassing clouds.24 mph74%30.23 "Hg30 mi
11:00 AM21 °FScattered clouds.25 mph74%30.23 "Hg25 mi
10:00 AM19 °FPartly sunny.25 mph73%30.23 "Hg30 mi
9:00 AM21 °FPartly sunny.24 mph74%30.23 "Hg30 mi
8:00 AM21 °FBroken clouds.20 mph74%30.22 "Hg20 mi
7:00 AM19 °FScattered clouds.28 mph79%30.20 "Hg30 mi
6:00 AM21 °FPartly sunny.16 mph80%30.20 "Hg30 mi
5:00 AM23 °FPassing clouds.21 mph80%30.19 "Hg30 mi
4:00 AM23 °FPassing clouds.23 mph80%30.18 "Hg30 mi
Weather by CustomWeather, © 2016

See weather overviewHow to use our weather pages